Location: Newark
(49.8348°N, 24.0280°E)
Time: 16:01:00
(UTC+00:00)

Explorer 11/Cluster Stage 4 - All Passes

Search period start: 19 January 2020 00:00
Search period end: 29 January 2020 00:00
Orbit: 467 x 1259 km, 28.8° (Epoch: 18 January)

Date Brightness Start Highest point End Pass type
(mag) Time Alt. Az. Time Alt. Az. Time Alt. Az.
22 Jan - 14:21:23 10° S 14:22:18 10° S 14:23:12 10° SSE daylight
23 Jan - 14:09:05 10° SSW 14:11:19 11° S 14:13:28 10° SSE daylight
24 Jan - 13:57:21 10° SSW 14:00:19 13° S 14:03:09 10° SSE daylight
24 Jan - 15:46:47 10° SSW 15:47:47 10° SSW 15:48:46 10° S visible
25 Jan - 13:45:50 10° SSW 13:49:19 13° S 13:52:36 10° SSE daylight
25 Jan - 15:35:30 10° SSW 15:36:47 10° SSW 15:38:02 10° S visible
26 Jan - 11:48:44 10° S 11:50:38 11° SSE 11:52:31 10° SSE daylight
26 Jan - 13:34:27 10° SSW 13:38:16 14° S 13:41:55 10° SSE daylight
26 Jan - 15:24:27 10° SSW 15:25:46 10° SSW 15:27:02 10° S daylight
27 Jan - 11:36:47 10° S 11:39:33 12° SSE 11:42:19 10° SE daylight
27 Jan - 13:23:10 10° SSW 13:27:13 15° S 13:31:07 10° SSE daylight
27 Jan - 15:13:39 10° SSW 15:14:44 10° SSW 15:15:48 10° S daylight
28 Jan - 11:25:09 10° SSW 11:28:29 13° SSE 11:31:47 10° SE daylight
28 Jan - 13:11:58 10° SW 13:16:09 15° S 13:20:13 10° SSE daylight
